Hourly Data Report for October 26, 2019

All times are specified in Local Standard Time (LST). Add 1 hour to adjust for Daylight Saving Time where and when it is observed.

SEPT-ILES
QUEBEC
Current Station Operator: ECCC - MSC

50°13'00.000" N
66°15'00.000" W
52.60 m
7047914
71279
XZV

Download Data

Hourly Data (October 2019)
Hourly Data Report for October 26, 2019
TIME Temp Definition
°C
Dew Point Definition
°C
Rel Hum Definition
%
Wind Dir Definition
10's deg

Wind Spd Definition
km/h
Visibility Definition
km
Stn Press Definition
kPa
Hmdx Definition


Wind Chill Definition


Weather Definition


00:00 2.2 -0.9 80 3 7   101.14     LegendNANA
01:00 1.9 -0.9 82 3 7   101.15     LegendNANA
02:00 1.7 -0.8 83 2 5   101.15     LegendNANA
03:00 1.5 -0.8 84 3 1   101.17     LegendNANA
04:00 1.2 -0.8 87 0 1   101.19     LegendNANA
05:00 1.3 -0.6 88   0   101.21     LegendNANA
06:00 1.9 -1.5 78 1 6   101.21     LegendNANA
07:00 1.7 -0.9 83 35 4   101.25     LegendNANA
08:00 2.6 -0.9 78 34 4   101.29     LegendNANA
09:00 4.1 -0.9 70 34 3   101.33     LegendNANA
10:00 4.8 -1.7 63 28 6   101.34     LegendNANA
11:00 5.3 -1.2 63 24 7   101.35     LegendNANA
12:00 5.6 1.4 74 21 8   101.38     LegendNANA
13:00 5.9 1.8 75 24 11   101.36     LegendNANA
14:00 5.1 2.0 80 24 10   101.39     LegendNANA
15:00 6.3 0.7 67 27 2   101.40     LegendNANA
16:00 4.3 1.1 80 26 7   101.48     LegendNANA
17:00 1.5 -0.3 87 30 3   101.57     LegendNANA
18:00 -0.4 -1.9 89 30 3   101.62   -1 LegendNANA
19:00 -1.5 -2.6 92 32 4   101.69   -3 LegendNANA
20:00 -1.7 -2.5 95 33 5   101.75   -4 LegendNANA
21:00 -1.3 -3.1 87 35 7   101.81   -4 LegendNANA
22:00 -0.4 -3.4 80 36 7   101.83   -3 LegendNANA
23:00 0.9 -3.7 71 1 7   101.88     LegendNANA

Notes on Data Quality.

Legend

  • E = Estimated
  • M = Missing
  • NA = Not Available
Date modified: